Time,TemperatureF,DewpointF,PressureIn,WindDirection,WindDirectionDegrees,WindSpeedMPH,WindSpeedGustMPH,Humidity,HourlyPrecipIn,Conditions,Clouds,dailyrainin,SoftwareType,DateUTC
2013-04-30 00:02:00,63.1,53.2,29.71,South,180,10.0,15.0,70,0.00,,,0.02,meteohub,2013-04-30 05:02:00,
2013-04-30 00:07:00,63.1,53.2,29.71,South,180,10.0,15.0,70,0.00,,,0.00,meteohub,2013-04-30 05:07:00,
2013-04-30 00:12:00,63.1,53.2,29.71,SSW,203,13.0,15.0,70,0.00,,,0.00,meteohub,2013-04-30 05:12:00,
2013-04-30 00:17:00,63.1,53.2,29.71,SW,225,14.0,15.0,70,0.00,,,0.00,meteohub,2013-04-30 05:17:00,
2013-04-30 00:22:00,63.0,53.1,29.71,SW,225,11.0,15.0,70,0.00,,,0.00,meteohub,2013-04-30 05:22:00,
2013-04-30 00:27:00,63.0,53.1,29.71,South,180,13.0,17.0,70,0.00,,,0.00,meteohub,2013-04-30 05:27:00,
2013-04-30 00:32:00,62.8,52.9,29.71,South,180,16.0,17.0,70,0.00,,,0.00,meteohub,2013-04-30 05:32:00,
2013-04-30 00:37:00,62.8,53.2,29.71,SW,225,12.0,17.0,71,0.00,,,0.00,meteohub,2013-04-30 05:37:00,
2013-04-30 00:42:00,63.0,53.1,29.71,South,180,12.0,16.0,70,0.00,,,0.00,meteohub,2013-04-30 05:42:00,
2013-04-30 00:47:00,63.0,53.1,29.71,SSW,203,12.0,16.0,70,0.00,,,0.00,meteohub,2013-04-30 05:47:00,
2013-04-30 00:52:00,63.0,53.1,29.71,SW,225,16.0,16.0,70,0.00,,,0.00,meteohub,2013-04-30 05:52:00,
2013-04-30 00:57:00,63.0,53.1,29.71,SSW,203,11.0,16.0,70,0.00,,,0.00,meteohub,2013-04-30 05:57:00,
2013-04-30 01:02:00,63.0,53.1,29.70,South,180,16.0,16.0,70,0.00,,,0.00,meteohub,2013-04-30 06:02:00,
2013-04-30 01:07:00,63.0,53.1,29.70,South,180,16.0,16.0,70,0.00,,,0.00,meteohub,2013-04-30 06:07:00,
2013-04-30 01:12:00,63.0,53.1,29.70,South,180,11.0,16.0,70,0.00,,,0.00,meteohub,2013-04-30 06:12:00,
2013-04-30 01:17:00,63.0,52.7,29.70,South,180,20.0,20.0,69,0.00,,,0.00,meteohub,2013-04-30 06:17:00,
2013-04-30 01:22:00,63.1,52.9,29.70,SW,225,15.0,20.0,69,0.00,,,0.00,meteohub,2013-04-30 06:22:00,
2013-04-30 01:27:00,63.0,52.7,29.70,South,180,13.0,20.0,69,0.00,,,0.00,meteohub,2013-04-30 06:27:00,
2013-04-30 01:32:00,63.0,52.7,29.69,SSW,203,17.0,20.0,69,0.00,,,0.00,meteohub,2013-04-30 06:32:00,
2013-04-30 01:37:00,63.0,52.7,29.69,SSW,203,15.0,18.0,69,0.00,,,0.00,meteohub,2013-04-30 06:37:00,
2013-04-30 01:42:00,62.8,52.9,29.67,South,180,13.0,18.0,70,0.00,,,0.00,meteohub,2013-04-30 06:42:00,
2013-04-30 01:47:00,62.8,52.9,29.67,SW,225,15.0,18.0,70,0.00,,,0.00,meteohub,2013-04-30 06:47:00,
2013-04-30 01:52:00,62.8,52.9,29.68,SW,225,17.0,17.0,70,0.00,,,0.00,meteohub,2013-04-30 06:52:00,
2013-04-30 01:57:00,62.6,52.7,29.68,SW,225,17.0,17.0,70,0.00,,,0.00,meteohub,2013-04-30 06:57:00,
2013-04-30 02:02:00,62.6,52.7,29.68,South,180,12.0,17.0,70,0.00,,,0.00,meteohub,2013-04-30 07:02:00,
2013-04-30 02:07:00,62.6,52.7,29.68,South,180,12.0,17.0,70,0.00,,,0.00,meteohub,2013-04-30 07:07:00,
2013-04-30 02:12:00,62.6,52.7,29.68,SW,225,14.0,17.0,70,0.00,,,0.00,meteohub,2013-04-30 07:12:00,
2013-04-30 02:17:00,62.6,52.7,29.68,SW,225,16.0,20.0,70,0.00,,,0.00,meteohub,2013-04-30 07:17:00,
2013-04-30 02:22:00,62.4,52.9,29.67,SSW,203,19.0,20.0,71,0.00,,,0.00,meteohub,2013-04-30 07:22:00,
2013-04-30 02:27:00,62.2,52.7,29.67,SW,225,19.0,20.0,71,0.00,,,0.00,meteohub,2013-04-30 07:27:00,
2013-04-30 02:32:00,62.2,52.7,29.68,SW,225,19.0,21.0,71,0.00,,,0.00,meteohub,2013-04-30 07:32:00,
2013-04-30 02:37:00,62.2,52.7,29.69,South,180,15.0,21.0,71,0.00,,,0.00,meteohub,2013-04-30 07:37:00,
2013-04-30 02:42:00,62.2,52.7,29.68,South,180,17.0,21.0,71,0.00,,,0.00,meteohub,2013-04-30 07:42:00,
2013-04-30 02:47:00,62.2,52.7,29.68,South,180,18.0,21.0,71,0.00,,,0.00,meteohub,2013-04-30 07:47:00,
2013-04-30 02:52:00,62.2,52.7,29.68,SW,225,17.0,20.0,71,0.00,,,0.00,meteohub,2013-04-30 07:52:00,
2013-04-30 02:57:00,62.1,52.5,29.68,SW,225,16.0,21.0,71,0.00,,,0.00,meteohub,2013-04-30 07:57:00,
2013-04-30 03:02:00,62.1,52.5,29.68,South,180,15.0,21.0,71,0.00,,,0.00,meteohub,2013-04-30 08:02:00,
2013-04-30 03:07:00,62.1,52.5,29.68,South,180,15.0,21.0,71,0.00,,,0.00,meteohub,2013-04-30 08:07:00,
2013-04-30 03:12:00,61.9,52.7,29.68,SW,225,16.0,19.0,72,0.00,,,0.00,meteohub,2013-04-30 08:12:00,
2013-04-30 03:17:00,62.1,52.9,29.68,South,180,15.0,19.0,72,0.00,,,0.00,meteohub,2013-04-30 08:17:00,
2013-04-30 03:22:00,62.1,52.9,29.69,SW,225,14.0,20.0,72,0.00,,,0.00,meteohub,2013-04-30 08:22:00,
2013-04-30 03:27:00,62.2,53.1,29.69,SW,225,15.0,23.0,72,0.00,,,0.00,meteohub,2013-04-30 08:27:00,
2013-04-30 03:32:00,62.2,53.1,29.70,South,180,16.0,23.0,72,0.00,,,0.00,meteohub,2013-04-30 08:32:00,
2013-04-30 03:37:00,62.2,53.1,29.70,WSW,248,15.0,23.0,72,0.00,,,0.00,meteohub,2013-04-30 08:37:00,
2013-04-30 03:42:00,62.2,53.1,29.70,SW,225,17.0,20.0,72,0.00,,,0.00,meteohub,2013-04-30 08:42:00,
2013-04-30 03:47:00,62.2,53.1,29.71,SW,225,16.0,20.0,72,0.00,,,0.00,meteohub,2013-04-30 08:47:00,
2013-04-30 03:52:00,62.2,53.1,29.72,SSW,203,18.0,19.0,72,0.00,,,0.00,meteohub,2013-04-30 08:52:00,
2013-04-30 03:57:00,62.1,52.9,29.71,WNW,293,14.0,18.0,72,0.00,,,0.00,meteohub,2013-04-30 08:57:00,
2013-04-30 04:02:00,62.1,53.2,29.71,SW,225,10.0,18.0,73,0.00,,,0.00,meteohub,2013-04-30 09:02:00,
2013-04-30 04:07:00,62.1,53.2,29.71,SW,225,10.0,18.0,73,0.00,,,0.00,meteohub,2013-04-30 09:07:00,
2013-04-30 04:12:00,61.7,52.9,29.72,South,180,10.0,18.0,73,0.00,,,0.00,meteohub,2013-04-30 09:12:00,
2013-04-30 04:17:00,61.7,52.9,29.72,South,180,8.0,15.0,73,0.00,,,0.00,meteohub,2013-04-30 09:17:00,
2013-04-30 04:22:00,61.5,53.2,29.72,SW,225,9.0,15.0,74,0.00,,,0.00,meteohub,2013-04-30 09:22:00,
2013-04-30 04:27:00,61.5,53.2,29.72,South,180,8.0,12.0,74,0.00,,,0.00,meteohub,2013-04-30 09:27:00,
2013-04-30 04:32:00,61.5,53.2,29.73,SW,225,8.0,12.0,74,0.00,,,0.00,meteohub,2013-04-30 09:32:00,
2013-04-30 04:37:00,61.5,53.2,29.73,SW,225,11.0,12.0,74,0.00,,,0.00,meteohub,2013-04-30 09:37:00,
2013-04-30 04:42:00,61.5,53.2,29.74,SW,225,11.0,13.0,74,0.00,,,0.00,meteohub,2013-04-30 09:42:00,
2013-04-30 04:47:00,61.5,53.2,29.75,WSW,248,11.0,13.0,74,0.00,,,0.00,meteohub,2013-04-30 09:47:00,
2013-04-30 04:52:00,61.5,53.2,29.75,WSW,248,8.0,13.0,74,0.00,,,0.00,meteohub,2013-04-30 09:52:00,
2013-04-30 04:57:00,61.5,53.2,29.75,West,270,9.0,13.0,74,0.00,,,0.00,meteohub,2013-04-30 09:57:00,
2013-04-30 05:02:00,61.5,53.6,29.76,West,270,8.0,11.0,75,0.00,,,0.00,meteohub,2013-04-30 10:02:00,
2013-04-30 05:07:00,61.5,53.6,29.77,West,270,8.0,11.0,75,0.00,,,0.00,meteohub,2013-04-30 10:07:00,
2013-04-30 05:12:00,61.2,53.6,29.75,West,270,8.0,10.0,76,0.00,,,0.00,meteohub,2013-04-30 10:12:00,
2013-04-30 05:17:00,61.0,53.8,29.76,WSW,248,5.0,10.0,77,0.00,,,0.00,meteohub,2013-04-30 10:17:00,
2013-04-30 05:22:00,60.6,53.8,29.75,West,270,8.0,10.0,78,0.00,,,0.00,meteohub,2013-04-30 10:22:00,
2013-04-30 05:27:00,60.4,54.0,29.75,SW,225,6.0,9.0,79,0.00,,,0.00,meteohub,2013-04-30 10:27:00,
2013-04-30 05:32:00,59.9,53.8,29.74,SW,225,4.0,9.0,80,0.01,,,0.01,meteohub,2013-04-30 10:32:00,
2013-04-30 05:37:00,59.9,54.1,29.76,SW,225,8.0,8.0,81,0.01,,,0.01,meteohub,2013-04-30 10:37:00,
2013-04-30 05:42:00,59.7,54.0,29.75,South,180,10.0,10.0,81,0.01,,,0.01,meteohub,2013-04-30 10:42:00,
2013-04-30 05:47:00,59.7,54.1,29.75,West,270,8.0,11.0,82,0.01,,,0.01,meteohub,2013-04-30 10:47:00,
2013-04-30 05:52:00,59.7,54.1,29.75,SSW,203,4.0,11.0,82,0.01,,,0.01,meteohub,2013-04-30 10:52:00,
2013-04-30 05:57:00,59.7,54.1,29.75,South,180,12.0,12.0,82,0.02,,,0.02,meteohub,2013-04-30 10:57:00,
2013-04-30 06:02:00,59.7,54.1,29.73,SSW,203,9.0,13.0,82,0.02,,,0.02,meteohub,2013-04-30 11:02:00,
2013-04-30 06:07:00,59.9,54.1,29.72,South,180,13.0,13.0,81,0.04,,,0.04,meteohub,2013-04-30 11:07:00,
2013-04-30 06:12:00,59.9,53.8,29.69,SE,135,6.0,17.0,80,0.04,,,0.04,meteohub,2013-04-30 11:12:00,
2013-04-30 06:17:00,59.9,53.8,29.70,SE,135,5.0,17.0,80,0.04,,,0.04,meteohub,2013-04-30 11:17:00,
2013-04-30 06:22:00,60.1,54.0,29.71,South,180,9.0,17.0,80,0.04,,,0.04,meteohub,2013-04-30 11:22:00,
2013-04-30 06:27:00,59.9,54.1,29.72,South,180,15.0,15.0,81,0.02,,,0.04,meteohub,2013-04-30 11:27:00,
2013-04-30 06:32:00,59.7,54.0,29.72,SW,225,12.0,15.0,81,0.02,,,0.04,meteohub,2013-04-30 11:32:00,
2013-04-30 06:37:00,59.7,54.0,29.71,South,180,11.0,15.0,81,0.02,,,0.04,meteohub,2013-04-30 11:37:00,
2013-04-30 06:42:00,59.7,54.0,29.70,SE,135,8.0,15.0,81,0.02,,,0.04,meteohub,2013-04-30 11:42:00,
2013-04-30 06:47:00,59.5,53.8,29.72,SW,225,11.0,15.0,81,0.02,,,0.04,meteohub,2013-04-30 11:47:00,
2013-04-30 06:52:00,59.7,54.1,29.73,SW,225,10.0,15.0,82,0.02,,,0.04,meteohub,2013-04-30 11:52:00,
2013-04-30 06:57:00,59.7,54.1,29.70,SE,135,13.0,15.0,82,0.01,,,0.04,meteohub,2013-04-30 11:57:00,
2013-04-30 07:02:00,60.4,54.5,29.70,SE,135,14.0,21.0,81,0.01,,,0.04,meteohub,2013-04-30 12:02:00,
2013-04-30 07:07:00,60.4,54.5,29.68,South,180,15.0,22.0,81,0.00,,,0.04,meteohub,2013-04-30 12:07:00,
2013-04-30 07:12:00,60.4,54.5,29.71,SW,225,17.0,22.0,81,0.00,,,0.04,meteohub,2013-04-30 12:12:00,
2013-04-30 07:17:00,60.6,54.5,29.73,SW,225,15.0,22.0,80,0.00,,,0.04,meteohub,2013-04-30 12:17:00,
2013-04-30 07:22:00,60.4,54.5,29.72,SW,225,8.0,21.0,81,0.00,,,0.04,meteohub,2013-04-30 12:22:00,
2013-04-30 07:27:00,60.4,54.5,29.72,South,180,14.0,20.0,81,0.00,,,0.04,meteohub,2013-04-30 12:27:00,
2013-04-30 07:32:00,60.4,54.5,29.73,SW,225,7.0,16.0,81,0.00,,,0.04,meteohub,2013-04-30 12:32:00,
2013-04-30 07:37:00,60.6,54.7,29.73,SW,225,9.0,15.0,81,0.00,,,0.04,meteohub,2013-04-30 12:37:00,
2013-04-30 07:42:00,60.8,54.9,29.73,SW,225,8.0,15.0,81,0.00,,,0.04,meteohub,2013-04-30 12:42:00,
2013-04-30 07:47:00,61.2,55.2,29.73,SW,225,9.0,15.0,81,0.00,,,0.04,meteohub,2013-04-30 12:47:00,
2013-04-30 07:52:00,61.3,55.0,29.72,SW,225,12.0,12.0,80,0.00,,,0.04,meteohub,2013-04-30 12:52:00,
2013-04-30 07:57:00,61.7,55.4,29.72,SW,225,9.0,14.0,80,0.00,,,0.04,meteohub,2013-04-30 12:57:00,
2013-04-30 08:02:00,61.9,55.2,29.71,SW,225,11.0,14.0,79,0.00,,,0.04,meteohub,2013-04-30 13:02:00,
2013-04-30 08:07:00,62.2,55.6,29.71,SW,225,11.0,14.0,79,0.00,,,0.04,meteohub,2013-04-30 13:07:00,
2013-04-30 08:12:00,62.6,55.6,29.71,SW,225,12.0,14.0,78,0.00,,,0.04,meteohub,2013-04-30 13:12:00,
2013-04-30 08:17:00,62.8,55.8,29.71,SW,225,15.0,17.0,78,0.00,,,0.04,meteohub,2013-04-30 13:17:00,
2013-04-30 08:22:00,62.8,55.8,29.71,SW,225,17.0,17.0,78,0.00,,,0.04,meteohub,2013-04-30 13:22:00,
2013-04-30 08:27:00,62.8,55.8,29.71,South,180,14.0,18.0,78,0.00,,,0.04,meteohub,2013-04-30 13:27:00,
2013-04-30 08:32:00,63.0,55.9,29.72,SW,225,17.0,18.0,78,0.00,,,0.04,meteohub,2013-04-30 13:32:00,
2013-04-30 08:37:00,63.1,56.1,29.72,NW,315,15.0,18.0,78,0.00,,,0.04,meteohub,2013-04-30 13:37:00,
2013-04-30 08:42:00,63.3,56.3,29.71,SW,225,13.0,17.0,78,0.00,,,0.04,meteohub,2013-04-30 13:42:00,
2013-04-30 08:47:00,63.9,56.5,29.71,SW,225,15.0,17.0,77,0.00,,,0.04,meteohub,2013-04-30 13:47:00,
2013-04-30 08:52:00,64.9,57.2,29.71,SW,225,11.0,17.0,76,0.00,,,0.04,meteohub,2013-04-30 13:52:00,
2013-04-30 08:57:00,66.2,56.1,29.71,SW,225,20.0,20.0,70,0.00,,,0.04,meteohub,2013-04-30 13:57:00,
2013-04-30 09:02:00,67.1,56.1,29.71,SW,225,15.0,21.0,68,0.00,,,0.04,meteohub,2013-04-30 14:02:00,
2013-04-30 09:07:00,67.8,56.1,29.71,NNW,338,18.0,21.0,66,0.00,,,0.04,meteohub,2013-04-30 14:07:00,
2013-04-30 09:12:00,68.4,55.8,29.70,West,270,15.0,21.0,64,0.00,,,0.04,meteohub,2013-04-30 14:12:00,
2013-04-30 09:17:00,69.1,55.9,29.70,SW,225,17.0,21.0,63,0.00,,,0.04,meteohub,2013-04-30 14:17:00,
2013-04-30 09:22:00,69.6,55.6,29.70,SW,225,23.0,30.0,61,0.00,,,0.04,meteohub,2013-04-30 14:22:00,
2013-04-30 09:27:00,69.4,56.3,29.70,SW,225,17.0,30.0,63,0.00,,,0.04,meteohub,2013-04-30 14:27:00,
2013-04-30 09:32:00,69.6,55.9,29.70,SW,225,19.0,30.0,62,0.00,,,0.04,meteohub,2013-04-30 14:32:00,
2013-04-30 09:37:00,69.8,56.1,29.69,SW,225,22.0,24.0,62,0.00,,,0.04,meteohub,2013-04-30 14:37:00,
2013-04-30 09:42:00,70.2,56.1,29.70,South,180,21.0,23.0,61,0.00,,,0.04,meteohub,2013-04-30 14:42:00,
2013-04-30 09:47:00,70.5,55.6,29.70,SW,225,20.0,22.0,59,0.00,,,0.04,meteohub,2013-04-30 14:47:00,
2013-04-30 09:52:00,71.1,56.5,29.70,NW,315,20.0,22.0,60,0.00,,,0.04,meteohub,2013-04-30 14:52:00,
2013-04-30 09:57:00,71.6,54.5,29.70,SW,225,23.0,23.0,55,0.00,,,0.04,meteohub,2013-04-30 14:57:00,
2013-04-30 10:02:00,71.8,55.2,29.70,SW,225,21.0,23.0,56,0.00,,,0.04,meteohub,2013-04-30 15:02:00,
2013-04-30 10:07:00,72.3,55.2,29.70,West,270,18.0,23.0,55,0.00,,,0.04,meteohub,2013-04-30 15:07:00,
2013-04-30 10:12:00,72.9,55.2,29.70,North,0,17.0,23.0,54,0.00,,,0.04,meteohub,2013-04-30 15:12:00,
2013-04-30 10:17:00,73.4,54.7,29.70,SW,225,23.0,23.0,52,0.00,,,0.04,meteohub,2013-04-30 15:17:00,
2013-04-30 10:22:00,73.8,54.5,29.70,SW,225,20.0,27.0,51,0.00,,,0.04,meteohub,2013-04-30 15:22:00,
2013-04-30 10:27:00,74.3,54.5,29.70,SW,225,16.0,27.0,50,0.00,,,0.04,meteohub,2013-04-30 15:27:00,
2013-04-30 10:32:00,75.0,55.0,29.70,SW,225,17.0,27.0,50,0.00,,,0.04,meteohub,2013-04-30 15:32:00,
2013-04-30 10:37:00,75.4,53.8,29.70,West,270,27.0,27.0,47,0.00,,,0.04,meteohub,2013-04-30 15:37:00,
2013-04-30 10:42:00,75.7,54.1,29.70,West,270,17.0,27.0,47,0.00,,,0.04,meteohub,2013-04-30 15:42:00,
2013-04-30 10:47:00,76.6,53.1,29.70,SW,225,21.0,27.0,44,0.00,,,0.04,meteohub,2013-04-30 15:47:00,
2013-04-30 10:52:00,76.6,52.5,29.71,SW,225,23.0,27.0,43,0.00,,,0.04,meteohub,2013-04-30 15:52:00,
2013-04-30 10:57:00,77.4,53.1,29.70,SW,225,21.0,24.0,43,0.00,,,0.04,meteohub,2013-04-30 15:57:00,
2013-04-30 11:02:00,77.7,52.9,29.71,SW,225,25.0,25.0,42,0.00,,,0.04,meteohub,2013-04-30 16:02:00,
2013-04-30 11:07:00,77.9,52.3,29.71,NW,315,20.0,25.0,41,0.00,,,0.04,meteohub,2013-04-30 16:07:00,
2013-04-30 11:12:00,78.4,51.4,29.70,West,270,24.0,25.0,39,0.00,,,0.04,meteohub,2013-04-30 16:12:00,
2013-04-30 11:17:00,78.6,51.6,29.70,SW,225,27.0,27.0,39,0.00,,,0.04,meteohub,2013-04-30 16:17:00,
2013-04-30 11:22:00,79.0,50.5,29.70,WNW,293,21.0,27.0,37,0.00,,,0.04,meteohub,2013-04-30 16:22:00,
2013-04-30 11:27:00,79.3,50.0,29.70,WSW,248,23.0,27.0,36,0.00,,,0.04,meteohub,2013-04-30 16:27:00,
2013-04-30 11:32:00,79.7,50.4,29.71,West,270,30.0,30.0,36,0.00,,,0.04,meteohub,2013-04-30 16:32:00,
2013-04-30 11:37:00,79.5,50.2,29.70,WSW,248,21.0,30.0,36,0.00,,,0.04,meteohub,2013-04-30 16:37:00,
2013-04-30 11:42:00,79.9,49.8,29.71,WSW,248,23.0,30.0,35,0.00,,,0.04,meteohub,2013-04-30 16:42:00,
2013-04-30 11:47:00,79.9,48.9,29.70,WSW,248,21.0,30.0,34,0.00,,,0.04,meteohub,2013-04-30 16:47:00,
2013-04-30 11:52:00,80.8,50.5,29.71,WNW,293,17.0,30.0,35,0.00,,,0.04,meteohub,2013-04-30 16:52:00,
2013-04-30 11:57:00,81.3,48.6,29.70,SW,225,27.0,27.0,32,0.00,,,0.04,meteohub,2013-04-30 16:57:00,
2013-04-30 12:02:00,81.0,49.1,29.71,SW,225,27.0,31.0,33,0.00,,,0.04,meteohub,2013-04-30 17:02:00,
2013-04-30 12:07:00,81.7,48.9,29.71,WSW,248,21.0,33.0,32,0.00,,,0.04,meteohub,2013-04-30 17:07:00,
2013-04-30 12:12:00,81.5,47.1,29.70,SW,225,27.0,33.0,30,0.00,,,0.04,meteohub,2013-04-30 17:12:00,
2013-04-30 12:17:00,81.7,48.0,29.70,West,270,21.0,33.0,31,0.00,,,0.04,meteohub,2013-04-30 17:17:00,
2013-04-30 12:22:00,81.9,50.0,29.70,SW,225,17.0,33.0,33,0.00,,,0.04,meteohub,2013-04-30 17:22:00,
2013-04-30 12:27:00,82.9,50.0,29.70,SW,225,20.0,32.0,32,0.00,,,0.04,meteohub,2013-04-30 17:27:00,
2013-04-30 12:32:00,82.9,49.3,29.70,WSW,248,23.0,31.0,31,0.00,,,0.04,meteohub,2013-04-30 17:32:00,
2013-04-30 12:37:00,82.8,48.2,29.70,SW,225,24.0,25.0,30,0.00,,,0.04,meteohub,2013-04-30 17:37:00,
2013-04-30 12:42:00,82.6,48.0,29.70,NW,315,21.0,27.0,30,0.00,,,0.04,meteohub,2013-04-30 17:42:00,
2013-04-30 12:47:00,82.8,48.2,29.70,SW,225,20.0,27.0,30,0.00,,,0.04,meteohub,2013-04-30 17:47:00,
2013-04-30 12:52:00,83.1,47.7,29.70,SW,225,24.0,27.0,29,0.00,,,0.04,meteohub,2013-04-30 17:52:00,
2013-04-30 12:57:00,82.8,45.3,29.70,WSW,248,32.0,32.0,27,0.00,,,0.04,meteohub,2013-04-30 17:57:00,
2013-04-30 13:02:00,82.8,46.4,29.70,West,270,21.0,32.0,28,0.00,,,0.04,meteohub,2013-04-30 18:02:00,
2013-04-30 13:07:00,82.9,45.5,29.70,West,270,27.0,32.0,27,0.00,,,0.04,meteohub,2013-04-30 18:07:00,
2013-04-30 13:12:00,83.1,46.6,29.69,SW,225,24.0,33.0,28,0.00,,,0.04,meteohub,2013-04-30 18:12:00,
2013-04-30 13:17:00,83.7,47.1,29.69,SW,225,27.0,33.0,28,0.00,,,0.04,meteohub,2013-04-30 18:17:00,
2013-04-30 13:22:00,83.7,47.1,29.69,SW,225,25.0,33.0,28,0.00,,,0.04,meteohub,2013-04-30 18:22:00,
2013-04-30 13:27:00,83.8,46.2,29.69,SW,225,28.0,28.0,27,0.00,,,0.04,meteohub,2013-04-30 18:27:00,
2013-04-30 13:32:00,83.8,47.3,29.70,WSW,248,27.0,28.0,28,0.00,,,0.04,meteohub,2013-04-30 18:32:00,
2013-04-30 13:37:00,84.4,46.8,29.69,WSW,248,27.0,28.0,27,0.00,,,0.04,meteohub,2013-04-30 18:37:00,
2013-04-30 13:42:00,84.4,46.8,29.70,WSW,248,26.0,32.0,27,0.00,,,0.04,meteohub,2013-04-30 18:42:00,
2013-04-30 13:47:00,84.0,46.4,29.70,NNW,338,28.0,32.0,27,0.00,,,0.04,meteohub,2013-04-30 18:47:00,
2013-04-30 13:52:00,84.6,45.0,29.70,SW,225,30.0,32.0,25,0.00,,,0.04,meteohub,2013-04-30 18:52:00,
2013-04-30 13:57:00,84.2,45.7,29.70,NW,315,27.0,33.0,26,0.00,,,0.04,meteohub,2013-04-30 18:57:00,
2013-04-30 14:02:00,84.4,45.7,29.70,SW,225,27.0,33.0,26,0.00,,,0.04,meteohub,2013-04-30 19:02:00,
2013-04-30 14:07:00,84.4,45.7,29.70,SW,225,33.0,36.0,26,0.00,,,0.04,meteohub,2013-04-30 19:07:00,
2013-04-30 14:12:00,84.9,46.2,29.70,SW,225,27.0,36.0,26,0.00,,,0.04,meteohub,2013-04-30 19:12:00,
2013-04-30 14:17:00,85.1,45.3,29.70,SW,225,30.0,35.0,25,0.00,,,0.04,meteohub,2013-04-30 19:17:00,
2013-04-30 14:23:00,84.9,45.1,29.70,SW,225,26.0,35.0,25,0.00,,,0.04,meteohub,2013-04-30 19:23:00,
2013-04-30 14:28:00,85.1,45.3,29.70,North,0,26.0,35.0,25,0.00,,,0.04,meteohub,2013-04-30 19:28:00,
2013-04-30 14:33:00,85.1,45.3,29.71,NW,315,27.0,30.0,25,0.00,,,0.04,meteohub,2013-04-30 19:33:00,
2013-04-30 14:38:00,85.6,44.8,29.71,NW,315,30.0,30.0,24,0.00,,,0.04,meteohub,2013-04-30 19:38:00,
2013-04-30 14:43:00,85.5,45.7,29.71,South,180,34.0,34.0,25,0.00,,,0.04,meteohub,2013-04-30 19:43:00,
2013-04-30 14:48:00,85.5,45.7,29.70,SW,225,27.0,34.0,25,0.00,,,0.04,meteohub,2013-04-30 19:48:00,
2013-04-30 14:53:00,85.8,45.9,29.71,West,270,21.0,34.0,25,0.00,,,0.04,meteohub,2013-04-30 19:53:00,
2013-04-30 14:58:00,86.0,47.1,29.71,West,270,22.0,34.0,26,0.00,,,0.04,meteohub,2013-04-30 19:58:00,
2013-04-30 15:03:00,85.8,45.9,29.71,West,270,27.0,27.0,25,0.00,,,0.04,meteohub,2013-04-30 20:03:00,
2013-04-30 15:08:00,86.0,47.1,29.71,SW,225,25.0,28.0,26,0.00,,,0.04,meteohub,2013-04-30 20:08:00,
2013-04-30 15:13:00,85.5,46.6,29.71,NW,315,26.0,28.0,26,0.00,,,0.04,meteohub,2013-04-30 20:13:00,
2013-04-30 15:18:00,85.1,46.4,29.71,North,0,23.0,27.0,26,0.00,,,0.04,meteohub,2013-04-30 20:18:00,
2013-04-30 15:23:00,85.6,46.8,29.71,SW,225,17.0,27.0,26,0.00,,,0.04,meteohub,2013-04-30 20:23:00,
2013-04-30 15:28:00,85.5,45.7,29.71,SW,225,30.0,30.0,25,0.00,,,0.04,meteohub,2013-04-30 20:28:00,
2013-04-30 15:33:00,84.9,46.2,29.71,SW,225,27.0,27.0,26,0.00,,,0.04,meteohub,2013-04-30 20:33:00,
2013-04-30 15:38:00,84.9,46.2,29.72,South,180,27.0,30.0,26,0.00,,,0.04,meteohub,2013-04-30 20:38:00,
2013-04-30 15:43:00,85.3,46.6,29.71,North,0,22.0,37.0,26,0.00,,,0.04,meteohub,2013-04-30 20:43:00,
2013-04-30 15:49:00,85.3,46.6,29.72,SW,225,25.0,37.0,26,0.00,,,0.04,meteohub,2013-04-30 20:49:00,
2013-04-30 15:54:00,85.5,45.7,29.71,SW,225,25.0,37.0,25,0.00,,,0.04,meteohub,2013-04-30 20:54:00,
2013-04-30 15:59:00,85.8,44.8,29.71,WSW,248,26.0,30.0,24,0.00,,,0.04,meteohub,2013-04-30 20:59:00,
2013-04-30 16:04:00,85.5,44.6,29.71,West,270,24.0,28.0,24,0.00,,,0.04,meteohub,2013-04-30 21:04:00,
2013-04-30 16:09:00,85.3,43.3,29.71,WNW,293,32.0,32.0,23,0.00,,,0.04,meteohub,2013-04-30 21:09:00,
2013-04-30 16:14:00,85.1,43.2,29.73,SW,225,28.0,34.0,23,0.00,,,0.04,meteohub,2013-04-30 21:14:00,
2013-04-30 16:19:00,85.1,44.2,29.72,WNW,293,23.0,34.0,24,0.00,,,0.04,meteohub,2013-04-30 21:19:00,
2013-04-30 16:24:00,85.1,43.2,29.72,SW,225,30.0,34.0,23,0.00,,,0.04,meteohub,2013-04-30 21:24:00,
2013-04-30 16:29:00,84.7,42.8,29.72,SW,225,21.0,34.0,23,0.00,,,0.04,meteohub,2013-04-30 21:29:00,
2013-04-30 16:34:00,84.9,44.1,29.73,SW,225,25.0,38.0,24,0.00,,,0.04,meteohub,2013-04-30 21:34:00,
2013-04-30 16:39:00,84.4,42.6,29.72,SW,225,27.0,38.0,23,0.00,,,0.04,meteohub,2013-04-30 21:39:00,
2013-04-30 16:44:00,84.2,43.5,29.73,SW,225,24.0,35.0,24,0.00,,,0.04,meteohub,2013-04-30 21:44:00,
2013-04-30 16:49:00,84.6,43.9,29.72,NW,315,32.0,35.0,24,0.00,,,0.04,meteohub,2013-04-30 21:49:00,
2013-04-30 16:54:00,84.6,43.9,29.73,NW,315,22.0,35.0,24,0.00,,,0.04,meteohub,2013-04-30 21:54:00,
2013-04-30 16:59:00,84.4,43.7,29.73,SW,225,27.0,32.0,24,0.00,,,0.04,meteohub,2013-04-30 21:59:00,
2013-04-30 17:04:00,84.4,44.8,29.73,SW,225,14.0,32.0,25,0.00,,,0.04,meteohub,2013-04-30 22:04:00,
2013-04-30 17:09:00,84.6,43.9,29.73,SW,225,27.0,29.0,24,0.00,,,0.04,meteohub,2013-04-30 22:09:00,
2013-04-30 17:15:00,83.7,43.0,29.73,SW,225,29.0,30.0,24,0.00,,,0.04,meteohub,2013-04-30 22:15:00,
2013-04-30 17:20:00,83.5,43.9,29.73,SW,225,25.0,31.0,25,0.00,,,0.04,meteohub,2013-04-30 22:20:00,
2013-04-30 17:25:00,83.3,43.9,29.73,SW,225,20.0,31.0,25,0.00,,,0.04,meteohub,2013-04-30 22:25:00,
2013-04-30 17:30:00,83.3,45.9,29.74,SW,225,20.0,31.0,27,0.00,,,0.04,meteohub,2013-04-30 22:30:00,
2013-04-30 17:35:00,83.1,44.6,29.74,SW,225,21.0,30.0,26,0.00,,,0.04,meteohub,2013-04-30 22:35:00,
2013-04-30 17:40:00,83.5,45.0,29.75,SW,225,21.0,27.0,26,0.00,,,0.04,meteohub,2013-04-30 22:40:00,
2013-04-30 17:45:00,83.5,45.0,29.75,North,0,19.0,31.0,26,0.00,,,0.04,meteohub,2013-04-30 22:45:00,
2013-04-30 17:50:00,83.7,45.1,29.75,SW,225,24.0,31.0,26,0.00,,,0.04,meteohub,2013-04-30 22:50:00,
2013-04-30 17:55:00,83.7,45.1,29.75,SW,225,20.0,31.0,26,0.00,,,0.04,meteohub,2013-04-30 22:55:00,
2013-04-30 18:00:00,83.5,45.0,29.75,SW,225,22.0,24.0,26,0.00,,,0.04,meteohub,2013-04-30 23:00:00,
2013-04-30 18:05:00,83.3,45.9,29.75,SW,225,23.0,24.0,27,0.00,,,0.04,meteohub,2013-04-30 23:05:00,
2013-04-30 18:10:00,82.9,44.6,29.76,SW,225,17.0,23.0,26,0.00,,,0.04,meteohub,2013-04-30 23:10:00,
2013-04-30 18:15:00,82.9,45.5,29.76,SW,225,18.0,23.0,27,0.00,,,0.04,meteohub,2013-04-30 23:15:00,
2013-04-30 18:20:00,82.9,45.5,29.76,SW,225,20.0,23.0,27,0.00,,,0.04,meteohub,2013-04-30 23:20:00,
2013-04-30 18:25:00,82.8,45.3,29.76,North,0,16.0,23.0,27,0.00,,,0.04,meteohub,2013-04-30 23:25:00,
2013-04-30 18:31:00,82.4,44.1,29.76,South,180,17.0,21.0,26,0.00,,,0.04,meteohub,2013-04-30 23:31:00,
2013-04-30 18:36:00,82.2,45.0,29.76,SW,225,14.0,21.0,27,0.00,,,0.04,meteohub,2013-04-30 23:36:00,
2013-04-30 18:41:00,82.0,44.8,29.76,West,270,17.0,20.0,27,0.00,,,0.04,meteohub,2013-04-30 23:41:00,
2013-04-30 18:46:00,81.9,44.6,29.77,SW,225,11.0,19.0,27,0.00,,,0.04,meteohub,2013-04-30 23:46:00,
2013-04-30 18:51:00,81.5,45.3,29.77,SW,225,13.0,19.0,28,0.00,,,0.04,meteohub,2013-04-30 23:51:00,
2013-04-30 18:56:00,81.3,44.1,29.78,SW,225,17.0,19.0,27,0.00,,,0.04,meteohub,2013-04-30 23:56:00,
2013-04-30 19:01:00,81.1,45.0,29.78,SW,225,17.0,18.0,28,0.00,,,0.04,meteohub,2013-05-01 00:01:00,
2013-04-30 19:06:00,80.6,44.4,29.78,SW,225,22.0,22.0,28,0.00,,,0.04,meteohub,2013-05-01 00:06:00,
2013-04-30 19:11:00,80.6,44.4,29.78,SW,225,12.0,22.0,28,0.00,,,0.04,meteohub,2013-05-01 00:11:00,
2013-04-30 19:16:00,80.4,44.2,29.78,SW,225,17.0,22.0,28,0.00,,,0.04,meteohub,2013-05-01 00:16:00,
2013-04-30 19:21:00,80.2,44.2,29.78,NW,315,13.0,22.0,28,0.00,,,0.04,meteohub,2013-05-01 00:21:00,
2013-04-30 19:26:00,79.9,43.9,29.78,WSW,248,16.0,20.0,28,0.00,,,0.04,meteohub,2013-05-01 00:26:00,
2013-04-30 19:31:00,79.7,43.7,29.78,SW,225,15.0,17.0,28,0.00,,,0.04,meteohub,2013-05-01 00:31:00,
2013-04-30 19:36:00,79.3,43.3,29.79,South,180,15.0,17.0,28,0.00,,,0.04,meteohub,2013-05-01 00:36:00,
2013-04-30 19:41:00,79.2,43.2,29.79,SW,225,18.0,18.0,28,0.00,,,0.04,meteohub,2013-05-01 00:41:00,
2013-04-30 19:46:00,79.0,43.2,29.80,SW,225,10.0,18.0,28,0.00,,,0.04,meteohub,2013-05-01 00:46:00,
2013-04-30 19:51:00,78.4,42.6,29.79,West,270,10.0,18.0,28,0.00,,,0.04,meteohub,2013-05-01 00:51:00,
2013-04-30 19:57:00,78.1,42.3,29.80,SW,225,13.0,18.0,28,0.00,,,0.04,meteohub,2013-05-01 00:57:00,
2013-04-30 20:02:00,77.9,42.3,29.80,SW,225,11.0,15.0,28,0.00,,,0.04,meteohub,2013-05-01 01:02:00,
2013-04-30 20:07:00,77.7,43.0,29.80,SW,225,9.0,15.0,29,0.00,,,0.04,meteohub,2013-05-01 01:07:00,
2013-04-30 20:12:00,77.4,42.6,29.80,South,180,15.0,15.0,29,0.00,,,0.04,meteohub,2013-05-01 01:12:00,
2013-04-30 20:17:00,77.4,43.5,29.80,WSW,248,12.0,15.0,30,0.00,,,0.04,meteohub,2013-05-01 01:17:00,
2013-04-30 20:22:00,77.0,44.1,29.80,NW,315,11.0,16.0,31,0.00,,,0.04,meteohub,2013-05-01 01:22:00,
2013-04-30 20:27:00,77.0,44.1,29.81,North,0,8.0,16.0,31,0.00,,,0.04,meteohub,2013-05-01 01:27:00,
2013-04-30 20:32:00,76.6,43.7,29.81,SW,225,11.0,17.0,31,0.00,,,0.04,meteohub,2013-05-01 01:32:00,
2013-04-30 20:37:00,76.3,43.3,29.81,SSW,203,14.0,17.0,31,0.00,,,0.04,meteohub,2013-05-01 01:37:00,
2013-04-30 20:42:00,76.1,43.3,29.80,SW,225,11.0,16.0,31,0.00,,,0.04,meteohub,2013-05-01 01:42:00,
2013-04-30 20:47:00,76.1,43.3,29.81,SW,225,11.0,18.0,31,0.00,,,0.04,meteohub,2013-05-01 01:47:00,
2013-04-30 20:52:00,75.9,43.2,29.81,SW,225,13.0,18.0,31,0.00,,,0.04,meteohub,2013-05-01 01:52:00,
2013-04-30 20:57:00,75.9,43.2,29.81,SW,225,13.0,18.0,31,0.00,,,0.04,meteohub,2013-05-01 01:57:00,
2013-04-30 21:02:00,75.6,42.8,29.82,South,180,13.0,17.0,31,0.00,,,0.04,meteohub,2013-05-01 02:02:00,
2013-04-30 21:07:00,75.6,42.8,29.82,South,180,13.0,14.0,31,0.00,,,0.04,meteohub,2013-05-01 02:07:00,
2013-04-30 21:12:00,75.0,43.2,29.82,SW,225,10.0,14.0,32,0.00,,,0.04,meteohub,2013-05-01 02:12:00,
2013-04-30 21:17:00,75.0,43.2,29.82,West,270,10.0,17.0,32,0.00,,,0.04,meteohub,2013-05-01 02:17:00,
2013-04-30 21:22:00,74.8,43.0,29.83,SW,225,8.0,17.0,32,0.00,,,0.04,meteohub,2013-05-01 02:22:00,
2013-04-30 21:27:00,74.1,43.2,29.83,NW,315,9.0,17.0,33,0.00,,,0.04,meteohub,2013-05-01 02:27:00,
2013-04-30 21:32:00,73.9,43.0,29.83,South,180,10.0,13.0,33,0.00,,,0.04,meteohub,2013-05-01 02:32:00,
2013-04-30 21:37:00,73.6,43.5,29.83,South,180,10.0,12.0,34,0.00,,,0.04,meteohub,2013-05-01 02:37:00,
2013-04-30 21:42:00,73.4,43.3,29.83,SW,225,11.0,13.0,34,0.00,,,0.04,meteohub,2013-05-01 02:42:00,
2013-04-30 21:47:00,73.2,43.2,29.83,NW,315,11.0,14.0,34,0.00,,,0.04,meteohub,2013-05-01 02:47:00,
2013-04-30 21:52:00,73.4,44.1,29.84,SW,225,11.0,14.0,35,0.00,,,0.04,meteohub,2013-05-01 02:52:00,
2013-04-30 21:57:00,73.4,44.1,29.84,SW,225,13.0,15.0,35,0.00,,,0.04,meteohub,2013-05-01 02:57:00,
2013-04-30 22:02:00,73.4,43.3,29.84,WSW,248,12.0,16.0,34,0.00,,,0.04,meteohub,2013-05-01 03:02:00,
2013-04-30 22:07:00,73.4,43.3,29.84,WSW,248,12.0,16.0,34,0.00,,,0.04,meteohub,2013-05-01 03:07:00,
2013-04-30 22:12:00,73.4,44.1,29.85,SW,225,10.0,16.0,35,0.00,,,0.04,meteohub,2013-05-01 03:12:00,
2013-04-30 22:17:00,73.0,44.4,29.85,SW,225,12.0,13.0,36,0.00,,,0.04,meteohub,2013-05-01 03:17:00,
2013-04-30 22:22:00,72.9,44.4,29.85,SW,225,13.0,13.0,36,0.00,,,0.04,meteohub,2013-05-01 03:22:00,
2013-04-30 22:27:00,72.7,44.2,29.86,SW,225,10.0,14.0,36,0.00,,,0.04,meteohub,2013-05-01 03:27:00,
2013-04-30 22:32:00,72.5,44.1,29.86,SW,225,10.0,16.0,36,0.00,,,0.04,meteohub,2013-05-01 03:32:00,
2013-04-30 22:37:00,72.3,44.6,29.86,SW,225,11.0,16.0,37,0.00,,,0.04,meteohub,2013-05-01 03:37:00,
2013-04-30 22:42:00,72.0,44.2,29.86,WSW,248,8.0,16.0,37,0.00,,,0.04,meteohub,2013-05-01 03:42:00,
2013-04-30 22:47:00,71.6,44.6,29.86,SW,225,7.0,11.0,38,0.00,,,0.04,meteohub,2013-05-01 03:47:00,
2013-04-30 22:52:00,71.2,44.2,29.87,SE,135,9.0,11.0,38,0.00,,,0.04,meteohub,2013-05-01 03:52:00,
2013-04-30 22:57:00,71.2,44.2,29.87,SW,225,8.0,10.0,38,0.00,,,0.04,meteohub,2013-05-01 03:57:00,
2013-04-30 23:01:00,70.9,44.1,29.87,SW,225,9.0,10.0,38,0.00,,,0.04,meteohub,2013-05-01 04:01:00,
2013-04-30 23:02:00,70.9,44.1,29.87,SW,225,9.0,10.0,38,0.00,,,0.04,meteohub,2013-05-01 04:02:00,
2013-04-30 23:05:00,70.9,44.1,29.87,SW,225,9.0,11.0,38,0.00,,,0.04,meteohub,2013-05-01 04:05:00,
2013-04-30 23:10:00,70.7,44.6,29.88,SW,225,11.0,13.0,39,0.00,,,0.04,meteohub,2013-05-01 04:10:00,
2013-04-30 23:15:00,70.5,45.0,29.88,South,180,11.0,13.0,40,0.00,,,0.04,meteohub,2013-05-01 04:15:00,
2013-04-30 23:21:00,70.3,45.5,29.88,SW,225,13.0,13.0,41,0.00,,,0.04,meteohub,2013-05-01 04:21:00,
2013-04-30 23:26:00,70.3,46.2,29.88,SW,225,11.0,14.0,42,0.00,,,0.04,meteohub,2013-05-01 04:26:00,
2013-04-30 23:31:00,70.0,46.4,29.88,South,180,12.0,14.0,43,0.00,,,0.04,meteohub,2013-05-01 04:31:00,
2013-04-30 23:36:00,69.8,46.9,29.88,SW,225,11.0,14.0,44,0.00,,,0.04,meteohub,2013-05-01 04:36:00,
2013-04-30 23:41:00,69.8,47.5,29.88,SW,225,11.0,17.0,45,0.00,,,0.04,meteohub,2013-05-01 04:41:00,
2013-04-30 23:46:00,69.8,48.7,29.89,SW,225,8.0,17.0,47,0.00,,,0.04,meteohub,2013-05-01 04:46:00,
2013-04-30 23:51:00,69.8,48.7,29.89,SW,225,15.0,17.0,47,0.00,,,0.04,meteohub,2013-05-01 04:51:00,
2013-04-30 23:56:00,70.2,49.6,29.90,SW,225,15.0,15.0,48,0.00,,,0.04,meteohub,2013-05-01 04:56:00,